Home   Weather   Mutsamudu   Past weeks

Flag for Comoros Past Weather in Mutsamudu, Comoros — Yesterday and Last 2 Weeks

Now
84 °F

Passing clouds.


Feels Like: 90 °F
Forecast: 80 / 83 °F
Wind: 5 mph from Southwest

Location: Dzaoudzi / Pamanzi Mayotte

Current Time: Dec 9, 2016 at 8:53:08 am

Latest Report: Dec 9, 2016 at 8:30 am


Visibility: N/A

Pressure: 29.98 "Hg

Humidity: 66%

Dew Point: 72 °F

Location of MutsamuduLocation

Past Weather in Mutsamudu — Graph

°F

Mutsamudu Temperature Yesterday

Maximum temperature yesterday: 90 °F (at 2:00 pm)
Minimum temperature yesterday: 77 °F (at 1:00 am)
Average temperature yesterday: 83 °F

High & Low Weather Summary for the Past Weeks

 TemperatureHumidityPressure
High90 °F (Nov 27, 11:00 am)89% (Nov 25, 6:05 pm)30.01 "Hg (Nov 25, 6:05 pm)
Low75 °F (Nov 28, 4:30 am)41% (Dec 3, 12:30 pm)29.83 "Hg (Nov 25, 3:30 pm)
Average82 °F72%29.92 "Hg
* Reported Nov 24 7:05 am — Dec 9 7:34 am, Mutsamudu, Weather by CustomWeather, © 2016

Note: Actual official high and low records may vary slightly from our data, if they occured in-between our weather recording intervals... More about our weather records

Advertising

Mutsamudu Weather History for the Previous 24 Hours

Scroll right to see more
 ConditionsComfort  
Time TempWeatherWind HumidityBarometerVisibility
7:34 am
Fri, Dec 9
82 °FPassing clouds.6 mph70%29.98 "HgN/A
7:00 am82 °FPassing clouds.8 mph74%29.98 "HgN/A
6:30 am81 °FPassing clouds.7 mph79%29.98 "HgN/A
6:05 am79 °FPassing clouds.7 mph79%29.98 "HgN/A
5:00 am79 °FWarm.6 mph79%29.95 "HgN/A
4:30 am79 °FWarm.6 mph79%29.92 "HgN/A
4:00 am79 °FWarm.6 mph79%29.92 "HgN/A
3:30 am79 °FWarm.6 mph79%29.92 "HgN/A
3:00 am79 °FWarm.5 mph79%29.92 "HgN/A
2:30 am79 °FWarm.1 mph79%29.92 "HgN/A
2:00 am79 °FWarm.3 mph84%29.92 "HgN/A
1:30 am79 °FWarm.8 mph84%29.92 "HgN/A
1:00 am79 °FWarm.9 mph84%29.95 "HgN/A
12:30 am79 °FWarm.8 mph79%29.95 "HgN/A
12:00 am79 °FWarm.7 mph79%29.95 "HgN/A
11:30 pm
Thu, Dec 8
77 °FWarm.3 mph83%29.95 "HgN/A
11:00 pm79 °FWarm.2 mph79%29.98 "HgN/A
10:30 pm79 °FWarm.3 mph79%29.98 "HgN/A
10:00 pm81 °FWarm.3 mph74%29.98 "HgN/A
9:30 pm81 °FWarm.8 mph79%29.95 "HgN/A
9:00 pm81 °FWarm.7 mph79%29.95 "HgN/A
8:30 pm81 °FWarm.7 mph74%29.95 "HgN/A
8:00 pm82 °FWarm.7 mph70%29.95 "HgN/A
7:30 pm82 °FWarm.7 mph70%29.95 "HgN/A
7:00 pm82 °FWarm.8 mph70%29.95 "HgN/A
6:30 pm82 °FWarm.9 mph70%29.95 "HgN/A
6:00 pm82 °FScattered clouds.9 mph70%29.95 "HgN/A
5:30 pm84 °FScattered clouds.10 mph66%29.92 "HgN/A
4:30 pm86 °FScattered clouds.8 mph62%29.92 "HgN/A
4:00 pm86 °FScattered clouds.9 mph62%29.92 "HgN/A
3:34 pm86 °FScattered clouds.9 mph62%29.92 "HgN/A
3:00 pm88 °FScattered clouds.7 mph55%29.92 "HgN/A
2:35 pm90 °FPartly sunny.6 mph55%29.92 "HgN/A
2:00 pm90 °FPartly sunny.5 mph55%29.95 "HgN/A
1:30 pm88 °FPartly sunny.5 mph55%29.95 "HgN/A
1:00 pm88 °FBroken clouds.5 mph55%29.95 "HgN/A
12:30 pm88 °FBroken clouds.5 mph59%29.95 "HgN/A
12:00 pm88 °FBroken clouds.5 mph59%29.98 "HgN/A
11:30 am88 °FBroken clouds.5 mph59%29.98 "HgN/A
11:00 am88 °FScattered clouds.2 mph59%30.01 "HgN/A
10:30 am88 °FScattered clouds.2 mph59%30.01 "HgN/A
10:00 am88 °FScattered clouds.2 mph59%30.01 "HgN/A
9:30 am88 °FScattered clouds.6 mph59%30.01 "HgN/A
9:00 am88 °FScattered clouds.3 mph55%30.01 "HgN/A
8:30 am88 °FScattered clouds.5 mph59%30.01 "HgN/A
8:00 am88 °FScattered clouds.6 mph62%30.01 "HgN/A
Weather by CustomWeather, © 2016

See weather overviewHow to use our weather pages